Charter Quote
Worldwide +1-877-727-2538 Call
Select Language Lang
SAFETY RELIABILITY EXPERIENCE

Kastner Aaf Airport (RJTR) - Jet Charter Services

AIRPORT INFORMATION
ICAORJTR
LOCATIONTokyo, Japan
FACILITY TYPEAIRPORT

At Paramount Business Jets you can hire chartered private jets to and from Kastner Aaf Airport with as little as 4 hours of notice. All flights booked via Paramount Business Jets are operated by certified direct air carriers that meet and exceed the FAA part 135 and 121 protocol or a foreign equivalent safety authority. Furthermore, Paramount Business Jets subscribes to ARGUS for their third party safety checks of operators, aircraft, and crews prior each and every flight to and from Kastner Aaf Airport and worldwide.

  • Quote a trip using Kastner Aaf Airport or call us 24/7 - 365 days a year at +1-877-727-2538.
Questions? Call +1-877-727-2538

METAR Weather Data at Kastner Aaf Airport, RJTR

STATIONRJTR
OBSERVEDSat Mar 16, 10:33 UTC
NOWTue Mar 19, 21:38 UTC
AGE83:05 hr ago
WINDWNW at 3 mph
VISIBILITY10 miles
CLOUDSovercast
TEMP46°F (8°C)
DEWPT36°F (2°C)
HUMIDITY66%
BAROMETER1015 hPa (29.97 in Hg)
METARRJTR 161033Z AUTO 29003KT 10SM OVC065 08/02 A2997 RMK AO2 LTG DSNT SE TSB18E33 PRESRR SLP153

Call us on +1-877-727-2538 (24 Hours) to Hire a Private Jet or Get a Quick Quote.

Find Airports Near any Location

Processing
...